Terminal Aerodrome Forecast
Issued by NWS

Home | Current Version | Previous Version | Text Only | Print | Product List | Glossary On
Versions: 1 2 3 4 5 6 7 8 9 10 11 12 13 14
000
FTUS46 KSTO 212300
TAFRDD
TAF
KRDD 212321Z 2200/2224 16012G18KT P6SM FEW250
     FM220400 VRB05KT P6SM SKC
     FM222100 17011G18KT P6SM SCT250=

USA.gov is the U.S. government's official web portal to all federal, state and local government web resources and services.